Location: Misciano
(43.5000°N, 11.9500°E)
Time: 06:31:04
(UTC+00:00)

USA 267 - Pass Details

Date: 13 August 2020
Orbit: 1101 x 1106 km, 123.0° (Epoch: 22 September)

Event Time Altitude Azimuth Distance (km) Brightness Sun altitude
Rises 21:15:00 0° 48° (NE) 3,928 6.3 -25.8°
Reaches altitude 10° 21:17:31 10° 45° (NE) 2,969 5.6 -26.1°
Maximum altitude 21:23:54 57° 329° (NNW) 1,282 3.8 -26.7°
Drops below altitude 10° 21:30:16 10° 253° (WSW) 2,962 5.6 -27.3°
Sets 21:32:47 0° 249° (WSW) 3,919 6.3 -27.5°
